| time (UTC) | temp C | wind direction | speed KPH | gust KPH | rain 1hr cm | rain 24hr cm | rain mn cm | humidity % | barometer mb |
| 20260506164551 | 12 | 5 | 11.3 | 19.3 | 0.00 | 0.00 | 0.00 | 87 | 1013.1 |
| 20260506163059 | 12 | 37 | 8.0 | 16.1 | 0.00 | 0.00 | 0.00 | 87 | 1014.4 |
| 20260506161607 | 12 | 15 | 11.3 | 19.3 | 0.00 | 0.00 | 0.00 | 88 | 1013.9 |
| 20260506160003 | 11 | 5 | 9.7 | 22.5 | 0.00 | 0.00 | 0.00 | 88 | 1013.9 |
| 20260506154526 | 11 | 336 | 6.4 | 22.5 | 0.00 | 0.00 | 0.00 | 89 | 1013.9 |
| 20260506153052 | 11 | 360 | 12.9 | 20.9 | 0.00 | 0.00 | 0.00 | 88 | 1013.4 |
| 20260506151506 | 11 | 360 | 8.0 | 16.1 | 0.00 | 0.00 | 0.00 | 87 | 1012.7 |
| 20260506150019 | 11 | 360 | 8.0 | 12.9 | 0.00 | 0.00 | 0.00 | 86 | 1014.8 |
| 20260506144551 | 12 | 360 | 6.4 | 14.5 | 0.00 | 0.00 | 0.00 | 85 | 1014.9 |
| 20260506143055 | 12 | 14 | 16.1 | 22.5 | 0.00 | 0.00 | 0.00 | 83 | 1014.5 |
| 20260506141605 | 12 | 360 | 17.7 | 25.7 | 0.00 | 0.00 | 0.00 | 82 | 1014.7 |
| 20260506140021 | 12 | 360 | 14.5 | 24.1 | 0.00 | 0.00 | 0.00 | 82 | 1014.3 |
| 20260506134550 | 12 | 10 | 16.1 | 32.2 | 0.00 | 0.00 | 0.00 | 81 | 1013.1 |
| 20260506133128 | 13 | 360 | 16.1 | 27.4 | 0.00 | 0.00 | 0.00 | 81 | 1012.8 |
| 20260506131513 | 13 | 9 | 16.1 | 22.5 | 0.00 | 0.00 | 0.00 | 80 | 1012.9 |
| 20260506130040 | 13 | 27 | 12.9 | 24.1 | 0.00 | 0.00 | 0.00 | 81 | 1012.3 |
| 20260506124606 | 13 | 360 | 12.9 | 19.3 | 0.00 | 0.00 | 0.00 | 81 | 1011.9 |
| 20260506123010 | 13 | 9 | 11.3 | 20.9 | 0.00 | 0.00 | 0.00 | 81 | 1011.9 |
| 20260506121532 | 13 | 360 | 11.3 | 17.7 | 0.00 | 0.00 | 0.00 | 81 | 1011.5 |
| 20260506120108 | 14 | 9 | 8.0 | 20.9 | 0.00 | 0.00 | 0.00 | 81 | 1011.3 |
| 20260506114616 | 14 | 13 | 8.0 | 16.1 | 0.00 | 0.00 | 0.00 | 82 | 1011.2 |
| 20260506113007 | 14 | 32 | 9.7 | 20.9 | 0.00 | 0.00 | 0.00 | 82 | 1011.3 |
| 20260506111521 | 14 | 335 | 16.1 | 22.5 | 0.00 | 0.00 | 0.00 | 82 | 1011.1 |
| 20260506110043 | 15 | 18 | 16.1 | 22.5 | 0.00 | 0.00 | 0.00 | 83 | 1011.0 |
| 20260506104637 | 15 | 22 | 9.7 | 19.3 | 0.00 | 0.00 | 0.00 | 83 | 1010.5 |
| 20260506103023 | 15 | 360 | 8.0 | 14.5 | 0.00 | 0.00 | 0.00 | 82 | 1010.3 |
| 20260506101529 | 15 | 18 | 8.0 | 16.1 | 0.00 | 0.00 | 0.00 | 81 | 1010.1 |
| 20260506100049 | 15 | 20 | 9.7 | 19.3 | 0.00 | 0.00 | 0.00 | 81 | 1009.8 |
| 20260506094509 | 16 | 5 | 11.3 | 17.7 | 0.00 | 0.00 | 0.00 | 81 | 1009.4 |
| 20260506093019 | 16 | 29 | 11.3 | 16.1 | 0.00 | 0.00 | 0.00 | 81 | 1009.4 |
| 20260506091536 | 16 | 347 | 8.0 | 16.1 | 0.00 | 0.00 | 0.00 | 80 | 1009.3 |
| 20260506090050 | 16 | 355 | 8.0 | 17.7 | 0.00 | 0.00 | 0.00 | 80 | 1009.2 |
| 20260506084601 | 16 | 348 | 9.7 | 17.7 | 0.00 | 0.00 | 0.00 | 80 | 1009.2 |
| 20260506083002 | 16 | 344 | 9.7 | 16.1 | 0.00 | 0.00 | 0.00 | 80 | 1009.2 |
| 20260506081509 | 17 | 344 | 11.3 | 17.7 | 0.00 | 0.00 | 0.00 | 79 | 1009.1 |
| 20260506073041 | 17 | 30 | 8.0 | 16.1 | 0.00 | 0.00 | 0.00 | 79 | 1008.6 |
| 20260506071547 | 17 | 34 | 6.4 | 12.9 | 0.00 | 0.00 | 0.00 | 79 | 1008.7 |
| 20260506061509 | 18 | 338 | 6.4 | 14.5 | 0.00 | 0.00 | 0.00 | 78 | 1008.7 |
| 20260506050117 | 19 | 355 | 4.8 | 14.5 | 0.00 | 0.00 | 0.00 | 75 | 1008.4 |
| 20260506044515 | 20 | 340 | 8.0 | 16.1 | 0.00 | 0.00 | 0.00 | 74 | 1008.4 |
| 20260506043031 | 20 | 21 | 9.7 | 20.9 | 0.00 | 0.00 | 0.00 | 74 | 1008.6 |
| 20260506041553 | 20 | 348 | 9.7 | 20.9 | 0.00 | 0.00 | 0.00 | 74 | 1008.6 |
| 20260506040104 | 20 | 340 | 11.3 | 20.9 | 0.00 | 0.00 | 0.00 | 75 | 1008.5 |
| 20260506034508 | 21 | 343 | 12.9 | 19.3 | 0.00 | 0.00 | 0.00 | 75 | 1008.0 |
| 20260506033027 | 21 | 319 | 4.8 | 9.7 | 0.00 | 0.00 | 0.00 | 74 | 1007.7 |
| 20260506031540 | 22 | 334 | 6.4 | 9.7 | 0.00 | 0.00 | 0.00 | 73 | 1007.2 |
| 20260506030043 | 22 | 350 | 4.8 | 14.5 | 0.00 | 0.00 | 0.00 | 72 | 1006.7 |
| 20260506024550 | 22 | 311 | 4.8 | 16.1 | 0.00 | 0.00 | 0.00 | 72 | 1006.9 |
| 20260506023118 | 23 | 330 | 6.4 | 14.5 | 0.00 | 0.00 | 0.00 | 70 | 1006.3 |
| 20260506021505 | 23 | 277 | 6.4 | 14.5 | 0.00 | 0.00 | 0.00 | 70 | 1006.1 |
| 20260506020010 | 24 | 344 | 12.9 | 27.4 | 0.00 | 0.00 | 0.00 | 69 | 1005.4 |
| 20260506014522 | 25 | 314 | 12.9 | 20.9 | 0.00 | 0.00 | 0.00 | 67 | 1004.7 |
| 20260506013024 | 26 | 299 | 6.4 | 17.7 | 0.00 | 0.00 | 0.00 | 67 | 1004.0 |
| 20260506011529 | 27 | 355 | 11.3 | 27.4 | 0.00 | 0.00 | 0.00 | 67 | 1003.9 |
| 20260506010044 | 28 | 237 | 6.4 | 25.7 | 0.00 | 0.00 | 0.00 | 74 | 1003.6 |
| 20260506004535 | 28 | 158 | 14.5 | 24.1 | 0.00 | 0.00 | 0.00 | 72 | 1003.0 |
| 20260506003048 | 30 | 165 | 12.9 | 17.7 | 0.00 | 0.00 | 0.00 | 67 | 1002.9 |
| 20260506001604 | 32 | 169 | 14.5 | 20.9 | 0.00 | 0.00 | 0.00 | 61 | 1003.0 |
| 20260506000054 | 33 | 193 | 4.8 | 9.7 | 0.00 | 0.00 | 0.00 | 48 | 1002.9 |
| 20260505234616 | 33 | 232 | 3.2 | 11.3 | 0.00 | 0.00 | 0.00 | 48 | 1002.9 |
| 20260505233009 | 33 | 180 | 4.8 | 9.7 | 0.00 | 0.00 | 0.00 | 47 | 1002.8 |
| 20260505231526 | 33 | 236 | 6.4 | 16.1 | 0.00 | 0.00 | 0.00 | 46 | 1002.9 |
| 20260505230030 | 33 | 244 | 4.8 | 14.5 | 0.00 | 0.00 | 0.00 | 49 | 1002.9 |
| 20260505224552 | 32 | 215 | 8.0 | 16.1 | 0.00 | 0.00 | 0.00 | 51 | 1002.9 |
| 20260505223117 | 32 | 217 | 8.0 | 16.1 | 0.00 | 0.00 | 0.00 | 50 | 1002.8 |
| 20260505221502 | 32 | 237 | 11.3 | 19.3 | 0.00 | 0.00 | 0.00 | 51 | 1002.9 |
| 20260505220008 | 32 | 222 | 11.3 | 17.7 | 0.00 | 0.00 | 0.00 | 51 | 1002.9 |
| 20260505214516 | 32 | 222 | 8.0 | 16.1 | 0.00 | 0.00 | 0.00 | 52 | 1003.0 |
| 20260505213031 | 32 | 219 | 9.7 | 14.5 | 0.00 | 0.00 | 0.00 | 51 | 1002.9 |
| 20260505211541 | 32 | 211 | 14.5 | 19.3 | 0.00 | 0.00 | 0.00 | 52 | 1002.9 |
| 20260505210045 | 32 | 201 | 11.3 | 22.5 | 0.00 | 0.00 | 0.00 | 53 | 1003.3 |
| 20260505204609 | 32 | 190 | 11.3 | 19.3 | 0.00 | 0.00 | 0.00 | 54 | 1003.6 |
| 20260505203132 | 32 | 213 | 11.3 | 20.9 | 0.00 | 0.00 | 0.00 | 56 | 1003.5 |
| 20260505201508 | 31 | 211 | 12.9 | 20.9 | 0.00 | 0.00 | 0.00 | 57 | 1004.0 |
| 20260505200027 | 31 | 244 | 12.9 | 27.4 | 0.00 | 0.00 | 0.00 | 57 | 1004.2 |
| 20260505194550 | 31 | 236 | 14.5 | 27.4 | 0.00 | 0.00 | 0.00 | 57 | 1004.3 |
| 20260505193054 | 31 | 209 | 16.1 | 29.0 | 0.00 | 0.00 | 0.00 | 59 | 1004.3 |
| 20260505191605 | 31 | 204 | 16.1 | 20.9 | 0.00 | 0.00 | 0.00 | 62 | 1004.5 |
| 20260505190011 | 30 | 241 | 12.9 | 29.0 | 0.00 | 0.00 | 0.00 | 63 | 1004.5 |
| 20260505184534 | 30 | 203 | 16.1 | 29.0 | 0.00 | 0.00 | 0.00 | 66 | 1004.7 |
| 20260505183048 | 30 | 221 | 12.9 | 30.6 | 0.00 | 0.00 | 0.00 | 64 | 1004.9 |
| 20260505181600 | 29 | 184 | 17.7 | 29.0 | 0.00 | 0.00 | 0.00 | 65 | 1005.0 |
| 20260505180114 | 28 | 221 | 16.1 | 24.1 | 0.00 | 0.00 | 0.00 | 67 | 1005.1 |
| 20260505174506 | 28 | 198 | 16.1 | 30.6 | 0.00 | 0.00 | 0.00 | 69 | 1005.5 |
| 20260505173025 | 28 | 235 | 24.1 | 33.8 | 0.00 | 0.00 | 0.00 | 68 | 1005.4 |
| 20260505170011 | 27 | 169 | 17.7 | 25.7 | 0.00 | 0.00 | 0.00 | 72 | 1005.4 |